Regional Weather Roundup
Issued by NWS

Home | Current Version | Previous Version | Graphics & Text | Print | Product List | Glossary On
Versions: 1 2 3 4 5 6 7 8 9 10 11 12 13 14 15 16 17 18 19 20 21 22 23 24 25 26 27 28 29 30 31 32 33 34 35 36 37 38 39 40 41 42 43 44 45 46 47 48 49 50
000
ASUS43 KFSD 110202
RWRSD

WEATHER ROUNDUP FOR SOUTH DAKOTA
NATIONAL WEATHER SERVICE SIOUX FALLS SD
900 PM CDT THU JUL 10 2014

NOTE: "FAIR" INDICATES FEW OR NO CLOUDS BELOW 12,000 FEET WITH NO
SIGNIFICANT WEATHER AND/OR OBSTRUCTIONS TO VISIBILITY.


SDZ001>005-009-010-012>017-110300-
NORTHWEST AND NORTH CENTRAL SOUTH DAKOTA

CITY           SKY/WX    TMP DP  RH WIND       PRES   REMARKS
BUFFALO          N/A     80  67  64 S9        29.77R
FAITH            N/A     77  70  79 S5        29.83R
MOBRIDGE       CLEAR     76  69  79 E3        29.77F
$$

SDZ012>016-024>037-041>051-057-063-072>074-110300-
SOUTHWEST AND SOUTH CENTRAL SOUTH DAKOTA

CITY           SKY/WX    TMP DP  RH WIND       PRES   REMARKS
RAPID CTY ARPT MOCLDY    77  62  59 SW7       29.89R
PIERRE         PTCLDY    80  72  76 N6        29.76R
CUSTER         CLOUDY    71  56  58 S6        30.07R
ELLSWORTH AFB  PTCLDY    77  65  64 S5        29.89R
PHILIP         LGT RAIN  82  68  62 N3        29.80R
PINE RIDGE     CLOUDY    74  59  59 W7        29.93R
WINNER         FAIR      84  68  58 S15G26    29.81R
$$

SDZ004>011-016>023-039-040-110300-
NORTHEAST SOUTH DAKOTA

CITY           SKY/WX    TMP DP  RH WIND       PRES   REMARKS
ABERDEEN       CLEAR     76  67  73 S9        29.79F
WATERTOWN      CLOUDY    75  65  70 S16       29.85F
SISSETON         N/A     73  68  84 S12       29.82F
$$

SDZ017-020-022-023-036>040-048>070-110300-
SOUTHEAST SOUTH DAKOTA

CITY           SKY/WX    TMP DP  RH WIND       PRES   REMARKS
SIOUX FALLS    CLOUDY    79  65  62 S16G22    29.90R
HURON          MOCLDY    80  67  64 S13       29.78F
CHAMBERLAIN    PTCLDY    79  69  71 SE16G22   29.80R
MITCHELL       PTCLDY    82  68  62 S14       29.84F
YANKTON        PTCLDY    79  68  69 S12       29.89S
$$

ABBREVIATIONS USED IN REMARKS
   TC - TEMPERATURE IN CELSIUS
  WCI - WIND CHILL INDEX
   HX - HEAT INDEX
  VSB - VISIBILITY




USA.gov is the U.S. government's official web portal to all federal, state and local government web resources and services.